Regional Weather Roundup
Issued by NWS

Home | Current Version | Previous Version | Graphics & Text | Print | Product List | Glossary On
Versions: 1 2 3 4 5 6 7 8 9 10 11 12 13 14 15 16 17 18 19 20 21 22 23 24 25 26 27 28 29 30 31 32 33 34 35 36 37 38 39 40 41 42 43 44 45 46 47 48 49 50
000
ASUS43 KLMK 262210
RWRKY
KENTUCKY REGIONAL WEATHER ROUNDUP
NATIONAL WEATHER SERVICE LOUISVILLE KY
600 PM EDT TUE JUL 26 2016

NOTE "FAIR" INDICATES FEW OR NO CLOUDS BELOW 12,000 FEET
WITH NO SIGNIFICANT WEATHER AND/OR OBSTRUCTIONS TO VISIBILITY.

KYZ001>023-026-027-061>063-070>075-262300-
WESTERN AND SOUTH CENTRAL KENTUCKY

CITY           SKY/WX    TMP DP  RH WIND       PRES   REMARKS
PADUCAH        CLOUDY    82  73  74 N10       29.97F
HENDERSON      PTSUNNY   86  75  70 W5        29.96S HX  95
OWENSBORO      TSTM      87  79  77 NW7       29.97S HX 101
HOPKINSVILLE   SUNNY     92  73  53 VRB1      29.96S HX 100
BOWLING GREEN  PTSUNNY   94  71  47 VRB5      29.96S HX 101
GLASGOW        MOSUNNY   92  71  50 W5        29.97S HX  99
$$

KYZ024-025-028>034-038-045-046-053-262300-
NORTH CENTRAL KENTUCKY

CITY           SKY/WX    TMP DP  RH WIND       PRES   REMARKS
LOUISVILLE/SDF PTSUNNY   89  74  60 N9        29.95S HX  98
LOUISVILLE/LOU MOSUNNY   88  75  65 N8        29.96S HX  97
FORT KNOX      SUNNY     90  74  60 SW9       29.96R HX  99
$$

KYZ035>037-039>044-047>052-055>060-089>105-262300-
NORTHEAST KENTUCKY

CITY           SKY/WX    TMP DP  RH WIND       PRES   REMARKS
LEXINGTON      CLOUDY    86  76  71 NE7       29.99F HX  96
COVINGTON      PTSUNNY   83  74  74 E5        30.00F
FRANKFORT      PTSUNNY   88  72  58 N8        29.97S HX  94
$$

KYZ054-064>069-076>088-106>120-262300-
SOUTHEAST KENTUCKY

CITY           SKY/WX    TMP DP  RH WIND       PRES   REMARKS
JACKSON        MOSUNNY   89  73  59 CALM      30.01F HX  97
LONDON         MOSUNNY   90  69  50 SW7       29.99F HX  94
SOMERSET       CLOUDY    86  70  58 CALM      29.99F HX  90
MIDDLESBORO    SUNNY     91  72  54 CALM      30.00F HX  98
MONTICELLO     CLEAR    N/A N/A N/A W12       30.00F
$$





USA.gov is the U.S. government's official web portal to all federal, state and local government web resources and services.